星链-6369 (STARLINK-6369 )

导读 | 星芒AI

STARLINK-6369 是 SpaceX Starlink 项目中的一颗低轨通信卫星,属于第63组发射的星链卫星之一。该卫星旨在为全球用户提供高速互联网服务,支持偏远地区的网络接入。它运行在约550公里高的近地轨道,采用先进的推进系统和激光通信技术,以提高网络效率和减少延迟。作为星链星座的一部分,STARLINK-6369 有助于构建一个覆盖全球的卫星互联网网络。

基本信息
目录编号:
57374
目录名称:
STARLINK-6369
国际标识:
2023-099AY
轨道中心:
EARTH
卫星名称:
星链-6369
卫星全名:
星链-6369 (STARLINK-6369 )
卫星状态:
在轨 (已飞行889 天)
发射日期:
2023-07-16 UTC
国别 :
美国 (US)
星等 :
--
轨道信息
数据来源 国际轨道数据
星历时间: 2025-12-21T13:31:53+0800
13小时前
查看轨道信息
半长轴: 6937.227km
偏心率: 0.0001253
轨道倾角: 43.005°
近地点辐角 269.930°
升交点赤经 289.309°
平近点角 90.140°
近地点: 558.22km
远地点: 559.96km
周期: 95.838分钟
每日圈数: 15.025327
详细信息
固有亮度:
5
最大亮度:
2.5
卫星平台:
Starlink v1.5
覆盖范围:
全球
运营商:
太空探索技术公司
运营商所在国:
美国
制造商(研发单位):
太空探索技术公司
制造商所在国:
美国
使用方式:
暂无
卫星简介
星链(Starlink)计划是由太空探索技术公司(SpaceX)提出的一个巨型低轨卫星互联网星座项目,计划在2019年至2024年间在太空搭建由约1.2万颗卫星组成的“星链”网络,其中1584颗将部署在地球上空550千米处的近地轨道,并从2020年开始工作。该卫星仍在工作。
2D轨道图
3D轨道图
轨道高度分析图
轨道倾角分析图
轨道综合分析图
查看轨道综合分析图